Weather History for Spirit of St Louis, MO

Change the Weather History Date:

Saturday, March 9, 2013

  Actual Average Record
Temperature  
Mean Temperature 56 °F -  
Max Temperature 70 °F 49 °F 70 °F (2007)
Min Temperature 41 °F 28 °F 17 °F (2003)
Degree Days  
Heating Degree Days 10    
Growing Degree Days 6 (Base 50)    
Moisture  
Dew Point 34 °F    
Average Humidity 51    
Maximum Humidity 86    
Minimum Humidity 26    
Precipitation  
Precipitation 0.29 in - - ()
Sea Level Pressure  
Sea Level Pressure 29.96 in    
Wind  
Wind Speed 7 mph (SE)    
Max Wind Speed 14 mph    
Max Gust Speed 22 mph    
Visibility 9 miles    
Events Rain , Thunderstorm    
Averages and records for this station are not official NWS values.
T = Trace of Precipitation, MM = Missing Value Source: NWS Daily Summary

Daily Weather History Graph

Daily Weather History Graph

Search for Another Location

Airport:

Trip Planner

Search our weather history database for the weather conditions in past years. The results will help you decide how hot, cold, wet, or windy it might be!

Date:

Astronomy

Mar. 09, 2013 Rise Set
Actual Time 6:22 AM CST 6:04 PM CST
Civil Twilight 5:56 AM CST 6:30 PM CST
Nautical Twilight 5:25 AM CST 7:01 PM CST
Astronomical Twilight 4:54 AM CST 7:32 PM CST
Moon 4:45 AM CST (3/9) 4:07 PM CST (3/9)
Length of Visible Light 12h 34m
Length of Day
11h 41m
Waning Crescent, 5% of the Moon is Illuminated
Mar 9
Waning Crescent
Mar 11
New
Mar 19
First Quarter
Mar 27
Full
Apr 2
Last Quarter

Hourly Weather History & Observations

Time (CST) Temp. Windchill Dew Point Humidity Pressure Visibility Wind Dir Wind Speed Gust Speed Precip Events Conditions
12:54 AM 46.9 °F - 30.0 °F 52% 30.18 in 10.0 mi Variable 6.9 mph - N/A   Mostly Cloudy
1:54 AM 46.0 °F 42.5 °F 28.9 °F 51% 30.16 in 10.0 mi ESE 6.9 mph - N/A   Clear
2:54 AM 46.0 °F 44.8 °F 28.9 °F 51% 30.12 in 10.0 mi Variable 3.5 mph - N/A   Partly Cloudy
3:54 AM 46.0 °F 42.5 °F 28.0 °F 50% 30.12 in 10.0 mi SE 6.9 mph - N/A   Overcast
4:54 AM 45.0 °F 43.5 °F 30.9 °F 58% 30.13 in 10.0 mi ESE 3.5 mph - 0.00 in Rain Light Rain
5:54 AM 43.0 °F 40.3 °F 33.1 °F 68% 30.12 in 10.0 mi ESE 4.6 mph - 0.01 in Rain Light Rain
6:54 AM 41.0 °F 38.0 °F 35.1 °F 79% 30.12 in 7.0 mi East 4.6 mph - 0.09 in Rain Light Rain
7:54 AM 41.0 °F 35.8 °F 36.0 °F 82% 30.13 in 4.0 mi ESE 8.1 mph - 0.07 in Rain Light Rain
8:54 AM 42.1 °F 39.2 °F 36.0 °F 79% 30.11 in 8.0 mi ESE 4.6 mph - 0.04 in Rain Light Rain
9:54 AM 41.0 °F 38.0 °F 37.0 °F 86% 30.09 in 4.0 mi ESE 4.6 mph - 0.05 in Rain Light Rain
10:54 AM 42.1 °F 37.7 °F 37.0 °F 82% 30.05 in 10.0 mi ESE 6.9 mph - 0.02 in   Overcast
11:54 AM 50.0 °F - 39.0 °F 66% 30.00 in 10.0 mi SE 8.1 mph - N/A   Mostly Cloudy
12:54 PM 55.0 °F - 39.0 °F 55% 29.95 in 10.0 mi SE 10.4 mph 19.6 mph N/A   Scattered Clouds
1:54 PM 59.0 °F - 39.0 °F 48% 29.89 in 10.0 mi SE 13.8 mph 20.7 mph N/A   Scattered Clouds
2:54 PM 62.1 °F - 39.9 °F 44% 29.84 in 10.0 mi ESE 12.7 mph 19.6 mph N/A   Clear
3:54 PM 70.0 °F - 34.0 °F 27% 29.81 in 10.0 mi South 13.8 mph 18.4 mph N/A   Clear
4:54 PM 68.0 °F - 33.1 °F 27% 29.80 in 10.0 mi SSE 9.2 mph - N/A   Mostly Cloudy
5:54 PM 68.0 °F - 32.0 °F 26% 29.80 in 10.0 mi SSE 9.2 mph - N/A   Overcast
6:54 PM 66.0 °F - 33.1 °F 29% 29.81 in 10.0 mi SSE 9.2 mph - N/A   Overcast
7:54 PM 64.0 °F - 35.1 °F 34% 29.80 in 10.0 mi SSE 10.4 mph 21.9 mph N/A   Mostly Cloudy
8:54 PM 63.0 °F - 33.1 °F 33% 29.80 in 10.0 mi SSE 9.2 mph 17.3 mph N/A   Clear
9:54 PM 63.0 °F - 30.9 °F 30% 29.81 in 10.0 mi SSE 11.5 mph 16.1 mph N/A   Scattered Clouds
10:54 PM 63.0 °F - 32.0 °F 31% 29.81 in 10.0 mi South 5.8 mph 19.6 mph N/A   Mostly Cloudy
11:37 PM 59.0 °F - 39.2 °F 48% 29.80 in 10.0 mi South 4.6 mph - 0.00 in Rain , Thunderstorm Light Rain
11:54 PM 60.1 °F - 39.9 °F 47% 29.78 in 9.0 mi South 6.9 mph - 0.01 in Rain Light Rain